Location: Hurecourt
(47.9030°N, 6.0653°E)
Time: 20:43:19
(UTC+00:00)

Cosmos 2082 Rocket - Pass Details

Date: 14 July 2020
Orbit: 834 x 853 km, 71.0° (Epoch: 14 August)

Event Time Altitude Azimuth Distance (km) Brightness Sun altitude
Exits shadow 00:40:56 10° 135° (SE) 2,464 4.3 -19.2°
Maximum altitude 00:44:16 16° 98° (E) 2,062 4.3 -19.1°
Drops below altitude 10° 00:47:40 10° 61° (ENE) 2,487 5.3 -18.9°
Sets 00:51:01 0° 41° (NE) 3,426 6.6 -18.7°
